sat.trackr.live / text

‹ back to catalog

STARLINK-31741

NORAD 59550 · 2024-074S

PAYLOAD ACTIVE UNKNOWN

§ Identity

Operator
Country
US
Launch date
2024-04-18
Launch site
AFETR
Launch vehicle
Mass (kg)
RCS (m²)

Purposes: comms

External: N2YO · Heavens-Above · Gunter

§ Orbital elements

Epoch: 2026-09-21T11:51:22.243680Z

Period
94.27 min
Inclination
43.0025°
Eccentricity
0.0001484
Mean motion
15.27578027 rev/d
Perigee alt
482.0 km
Apogee alt
484.1 km
Semi-major
6,861.2 km
B*
1.3529e-5
RAAN
317.4178°
Arg perigee
276.9821°
Mean anomaly
83.0862°
Rev number
13,596

§ Raw data

STARLINK-317411 59550U 24074S   26264.49400745  .00000110  00000+0  13529-4 0  99992 59550  43.0025 317.4178 0001484 276.9821  83.0862 15.27578027135968

JSON: /api/v1/satellites/59550 · /tle

For live sub-satellite position, see the globe view (requires WebGL).

§ Visibility from observer

Set your observer location to see the next 7 days of passes ≥ 10°. The values pass through the URL so the page stays shareable.

No JS? Fill the form by hand. The geolocation button needs JavaScript.